When you browse on this site, cookies collect data to enhance your experience and personalize the content and advertising you see.
Visit our Privacy Policy to learn more. By continuing to use the site, you agree to this use of cookies and data.
EN

Hourly Weather Arcozelo

Today, 9 August, Sunday

Time Temperature Precipitation Wind Pressure Humidity
00:00 +20°C° 0 mm 1 mps 761 mmHg 84%
01:00 +20°C° 0 mm 1 mps 761 mmHg 85%
02:00 +20°C° 0 mm 1 mps 761 mmHg 87%
03:00 +19°C° 0 mm 1 mps 761 mmHg 87%
04:00 +19°C° 0 mm 1 mps 760 mmHg 87%
05:00 +19°C° 0 mm 1 mps 760 mmHg 88%
06:00 +20°C° 0 mm 2 mps 760 mmHg 79%
07:00 +23°C° 0 mm 2 mps 761 mmHg 71%
08:00 +25°C° 0 mm 2 mps 761 mmHg 62%
09:00 +27°C° 0 mm 2 mps 760 mmHg 58%
10:00 +28°C° 0 mm 3 mps 760 mmHg 54%
11:00 +29°C° 0 mm 3 mps 760 mmHg 51%
12:00 +29°C° 0 mm 3 mps 760 mmHg 52%
13:00 +29°C° 0 mm 3 mps 759 mmHg 53%
14:00 +28°C° 0 mm 4 mps 759 mmHg 55%
15:00 +27°C° 0 mm 4 mps 759 mmHg 59%
16:00 +26°C° 0 mm 3 mps 759 mmHg 63%
17:00 +25°C° 0 mm 3 mps 759 mmHg 67%
18:00 +24°C° 0 mm 3 mps 759 mmHg 75%
19:00 +21°C° 0 mm 3 mps 760 mmHg 83%
20:00 +19°C° 0 mm 3 mps 760 mmHg 90%
21:00 +19°C° 0 mm 2 mps 760 mmHg 90%
22:00 +20°C° 0 mm 2 mps 760 mmHg 90%
23:00 +20°C° 0 mm 2 mps 759 mmHg 90%

Tomorrow, 10 August, Monday

Time Temperature Precipitation Wind Pressure Humidity
00:00 +20°C° 0 mm 2 mps 759 mmHg 89%
01:00 +21°C° 0 mm 1 mps 759 mmHg 88%
02:00 +21°C° 0 mm 1 mps 759 mmHg 87%
03:00 +21°C° 0 mm 1 mps 758 mmHg 87%
04:00 +21°C° 0 mm 1 mps 758 mmHg 86%
05:00 +21°C° 0 mm 1 mps 758 mmHg 86%
06:00 +22°C° 0 mm 1 mps 758 mmHg 81%
07:00 +23°C° 0 mm 1 mps 758 mmHg 75%
08:00 +24°C° 0 mm 1 mps 758 mmHg 70%
09:00 +26°C° 0 mm 1 mps 758 mmHg 64%
10:00 +27°C° 0 mm 2 mps 758 mmHg 58%
11:00 +29°C° 0 mm 2 mps 758 mmHg 52%
12:00 +29°C° 0 mm 3 mps 758 mmHg 53%
13:00 +29°C° 0 mm 4 mps 757 mmHg 54%
14:00 +28°C° 0 mm 4 mps 757 mmHg 55%
15:00 +27°C° 0 mm 4 mps 757 mmHg 59%
16:00 +26°C° 0 mm 4 mps 757 mmHg 63%
17:00 +25°C° 0 mm 4 mps 756 mmHg 67%
18:00 +24°C° 0 mm 3 mps 757 mmHg 73%
19:00 +21°C° 0 mm 3 mps 757 mmHg 80%
20:00 +20°C° 0 mm 2 mps 757 mmHg 86%
21:00 +20°C° 0 mm 2 mps 757 mmHg 87%
22:00 +19°C° 0 mm 2 mps 757 mmHg 88%
23:00 +19°C° 0 mm 2 mps 757 mmHg 90%

Day after tomorrow, 11 August, Tuesday

Time Temperature Precipitation Wind Pressure Humidity
00:00 +19°C° 0 mm 2 mps 757 mmHg 90%
01:00 +19°C° 0 mm 2 mps 756 mmHg 91%
02:00 +19°C° 0 mm 2 mps 756 mmHg 91%
03:00 +19°C° 0 mm 2 mps 756 mmHg 91%
04:00 +19°C° 0 mm 2 mps 756 mmHg 91%
05:00 +18°C° 0 mm 2 mps 756 mmHg 90%
06:00 +20°C° 0 mm 2 mps 757 mmHg 83%
07:00 +23°C° 0 mm 2 mps 757 mmHg 76%
08:00 +25°C° 0 mm 2 mps 757 mmHg 68%
09:00 +26°C° 0 mm 2 mps 757 mmHg 64%
10:00 +27°C° 0 mm 3 mps 757 mmHg 60%
11:00 +28°C° 0 mm 3 mps 757 mmHg 56%
12:00 +28°C° 0 mm 4 mps 757 mmHg 57%
13:00 +28°C° 0 mm 4 mps 757 mmHg 58%
14:00 +27°C° 0 mm 5 mps 757 mmHg 59%
15:00 +26°C° 0 mm 5 mps 757 mmHg 63%
16:00 +26°C° 0 mm 6 mps 757 mmHg 67%
17:00 +24°C° 0 mm 6 mps 757 mmHg 71%
18:00 +22°C° 0 mm 6 mps 758 mmHg 77%
19:00 +21°C° 0 mm 6 mps 759 mmHg 82%
20:00 +20°C° 0 mm 6 mps 759 mmHg 88%
21:00 +20°C° 0 mm 5 mps 759 mmHg 89%
22:00 +20°C° 0 mm 5 mps 759 mmHg 89%
23:00 +20°C° 0 mm 5 mps 760 mmHg 89%

12 August, Wednesday

Time Temperature Precipitation Wind Pressure Humidity
00:00 +20°C° 0 mm 5 mps 759 mmHg 89%
01:00 +20°C° 0 mm 5 mps 759 mmHg 90%
02:00 +19°C° 0 mm 5 mps 759 mmHg 90%
03:00 +19°C° 0 mm 5 mps 759 mmHg 90%
04:00 +19°C° 0 mm 5 mps 760 mmHg 90%
05:00 +19°C° 0 mm 5 mps 760 mmHg 90%
06:00 +20°C° 0 mm 5 mps 760 mmHg 84%
07:00 +21°C° 0 mm 5 mps 760 mmHg 78%
08:00 +22°C° 0 mm 4 mps 761 mmHg 72%
09:00 +25°C° 0 mm 5 mps 761 mmHg 66%
10:00 +26°C° 0 mm 6 mps 761 mmHg 59%
11:00 +27°C° 0 mm 7 mps 761 mmHg 53%
12:00 +27°C° 0 mm 7 mps 761 mmHg 53%
13:00 +27°C° 0 mm 7 mps 761 mmHg 52%
14:00 +27°C° 0 mm 7 mps 760 mmHg 52%
15:00 +26°C° 0 mm 7 mps 761 mmHg 54%
16:00 +24°C° 0 mm 7 mps 761 mmHg 57%
17:00 +23°C° 0 mm 7 mps 761 mmHg 59%
18:00 +22°C° 0 mm 6 mps 761 mmHg 65%
19:00 +20°C° 0 mm 6 mps 762 mmHg 71%
20:00 +19°C° 0 mm 5 mps 762 mmHg 77%
21:00 +19°C° 0 mm 5 mps 762 mmHg 78%
22:00 +17°C° 0 mm 5 mps 762 mmHg 80%
23:00 +18°C° 0 mm 4 mps 762 mmHg 81%

13 August, Thursday

Time Temperature Precipitation Wind Pressure Humidity
00:00 +18°C° 0 mm 4 mps 762 mmHg 82%
01:00 +17°C° 0 mm 3 mps 762 mmHg 83%
02:00 +17°C° 0 mm 3 mps 761 mmHg 84%
03:00 +17°C° 0 mm 3 mps 761 mmHg 84%
04:00 +17°C° 0 mm 3 mps 762 mmHg 84%
05:00 +17°C° 0 mm 4 mps 762 mmHg 85%
06:00 +19°C° 0 mm 4 mps 762 mmHg 74%
07:00 +21°C° 0 mm 3 mps 762 mmHg 63%
08:00 +25°C° 0 mm 3 mps 762 mmHg 53%
09:00 +26°C° 0 mm 4 mps 761 mmHg 47%
10:00 +28°C° 0 mm 5 mps 761 mmHg 41%
11:00 +29°C° 0 mm 6 mps 761 mmHg 35%
12:00 +29°C° 0 mm 7 mps 761 mmHg 38%
13:00 +28°C° 0 mm 7 mps 760 mmHg 42%
14:00 +27°C° 0 mm 8 mps 760 mmHg 45%
15:00 +26°C° 0 mm 7 mps 760 mmHg 49%
16:00 +24°C° 0 mm 7 mps 760 mmHg 53%
17:00 +23°C° 0 mm 7 mps 760 mmHg 57%
18:00 +22°C° 0 mm 6 mps 760 mmHg 64%
19:00 +20°C° 0 mm 6 mps 760 mmHg 71%
20:00 +17°C° 0 mm 6 mps 761 mmHg 78%
21:00 +17°C° 0 mm 5 mps 761 mmHg 80%
22:00 +16°C° 0 mm 5 mps 761 mmHg 82%
23:00 +17°C° 0 mm 4 mps 761 mmHg 85%

14 August, Friday

Time Temperature Precipitation Wind Pressure Humidity
00:00 +15°C° 0 mm 4 mps 760 mmHg 86%
01:00 +15°C° 0 mm 4 mps 760 mmHg 87%
02:00 +15°C° 0 mm 4 mps 760 mmHg 88%
03:00 +16°C° 0 mm 3 mps 760 mmHg 88%
04:00 +16°C° 0 mm 3 mps 760 mmHg 88%
05:00 +14°C° 0 mm 3 mps 760 mmHg 88%
06:00 +17°C° 0 mm 3 mps 760 mmHg 78%
07:00 +20°C° 0 mm 3 mps 760 mmHg 68%
08:00 +22°C° 0 mm 4 mps 760 mmHg 58%
09:00 +23°C° 0 mm 4 mps 760 mmHg 54%
10:00 +25°C° 0 mm 5 mps 760 mmHg 50%
11:00 +26°C° 0 mm 6 mps 760 mmHg 46%
12:00 +24°C° 0 mm 6 mps 760 mmHg 47%
13:00 +24°C° 0 mm 6 mps 760 mmHg 48%
14:00 +24°C° 0 mm 6 mps 760 mmHg 49%
15:00 +23°C° 0 mm 6 mps 760 mmHg 54%
16:00 +22°C° 0 mm 5 mps 760 mmHg 58%
17:00 +21°C° 0 mm 4 mps 760 mmHg 63%
18:00 +20°C° 0 mm 4 mps 761 mmHg 71%
19:00 +19°C° 0 mm 4 mps 761 mmHg 79%
20:00 +17°C° 0 mm 4 mps 761 mmHg 86%
21:00 +17°C° 0 mm 3 mps 762 mmHg 87%
22:00 +17°C° 0 mm 3 mps 762 mmHg 88%
23:00 +17°C° 0 mm 3 mps 762 mmHg 88%
Show more